Time,TemperatureF,DewpointF,PressureIn,WindDirection,WindDirectionDegrees,WindSpeedMPH,WindSpeedGustMPH,Humidity,HourlyPrecipIn,Conditions,Clouds,dailyrainin,SoftwareType,DateUTC
2013-01-06 00:01:00,34.0,28.2,29.72,NE,45,1.0,1.0,79,0.02,,,0.04,meteohub,2013-01-06 05:01:00,
2013-01-06 00:02:00,34.0,28.4,29.72,South,180,1.0,1.0,80,0.02,,,0.04,meteohub,2013-01-06 05:02:00,
2013-01-06 00:05:00,34.0,28.4,29.72,NE,45,1.0,2.0,80,0.01,,,0.00,meteohub,2013-01-06 05:05:00,
2013-01-06 00:08:00,34.0,28.4,29.71,NE,45,0.0,2.0,80,0.01,,,0.00,meteohub,2013-01-06 05:08:00,
2013-01-06 00:15:00,34.2,28.9,29.71,NW,315,0.0,2.0,81,0.01,,,0.00,meteohub,2013-01-06 05:15:00,
2013-01-06 00:21:00,34.2,28.9,29.72,South,180,0.0,2.0,81,0.01,,,0.00,meteohub,2013-01-06 05:21:00,
2013-01-06 00:27:00,34.3,29.1,29.71,NW,315,2.0,2.0,81,0.01,,,0.00,meteohub,2013-01-06 05:27:00,
2013-01-06 00:33:00,34.7,30.0,29.72,NW,315,5.0,5.0,83,0.01,,,0.00,meteohub,2013-01-06 05:33:00,
2013-01-06 00:39:00,35.6,31.3,29.72,NW,315,4.0,6.0,84,0.00,,,0.00,meteohub,2013-01-06 05:39:00,
2013-01-06 00:46:00,36.3,32.5,29.72,NW,315,2.0,6.0,86,0.00,,,0.00,meteohub,2013-01-06 05:46:00,
2013-01-06 00:52:00,36.5,33.3,29.71,NW,315,4.0,4.0,88,0.00,,,0.00,meteohub,2013-01-06 05:52:00,
2013-01-06 00:58:00,36.7,33.4,29.71,North,0,2.0,4.0,88,0.01,,,0.01,meteohub,2013-01-06 05:58:00,
2013-01-06 01:04:00,36.5,33.3,29.71,North,0,2.0,4.0,88,0.01,,,0.01,meteohub,2013-01-06 06:04:00,
2013-01-06 01:11:00,36.5,33.3,29.71,North,0,2.0,3.0,88,0.01,,,0.01,meteohub,2013-01-06 06:11:00,
2013-01-06 01:17:00,36.5,33.3,29.71,NW,315,2.0,4.0,88,0.01,,,0.01,meteohub,2013-01-06 06:17:00,
2013-01-06 01:23:00,36.5,33.3,29.71,West,270,3.0,4.0,88,0.01,,,0.01,meteohub,2013-01-06 06:23:00,
2013-01-06 01:29:00,36.5,33.3,29.71,NW,315,0.0,4.0,88,0.01,,,0.01,meteohub,2013-01-06 06:29:00,
2013-01-06 01:35:00,36.3,33.1,29.71,NE,45,2.0,3.0,88,0.01,,,0.01,meteohub,2013-01-06 06:35:00,
2013-01-06 01:41:00,36.3,33.1,29.71,North,0,0.0,2.0,88,0.01,,,0.01,meteohub,2013-01-06 06:41:00,
2013-01-06 01:47:00,36.3,33.1,29.70,NE,45,2.0,2.0,88,0.01,,,0.01,meteohub,2013-01-06 06:47:00,
2013-01-06 01:52:00,36.3,33.1,29.71,NE,45,2.0,2.0,88,0.01,,,0.01,meteohub,2013-01-06 06:52:00,
2013-01-06 01:59:00,36.3,33.1,29.71,SE,135,0.0,2.0,88,0.01,,,0.02,meteohub,2013-01-06 06:59:00,
2013-01-06 02:05:00,36.3,32.9,29.71,SE,135,0.0,2.0,87,0.01,,,0.02,meteohub,2013-01-06 07:05:00,
2013-01-06 02:11:00,36.3,32.9,29.70,SE,135,0.0,0.0,87,0.01,,,0.02,meteohub,2013-01-06 07:11:00,
2013-01-06 02:17:00,36.1,32.7,29.70,SE,135,0.0,0.0,87,0.01,,,0.02,meteohub,2013-01-06 07:17:00,
2013-01-06 02:22:00,36.1,32.7,29.70,SE,135,0.0,0.0,87,0.01,,,0.02,meteohub,2013-01-06 07:22:00,
2013-01-06 02:28:00,36.3,32.9,29.70,SE,135,0.0,0.0,87,0.01,,,0.02,meteohub,2013-01-06 07:28:00,
2013-01-06 02:34:00,36.3,32.5,29.70,SE,135,0.0,0.0,86,0.01,,,0.02,meteohub,2013-01-06 07:34:00,
2013-01-06 02:40:00,36.1,32.4,29.70,SE,135,1.0,2.0,86,0.02,,,0.04,meteohub,2013-01-06 07:40:00,
2013-01-06 02:47:00,36.1,32.4,29.70,SE,135,1.0,2.0,86,0.02,,,0.04,meteohub,2013-01-06 07:47:00,
2013-01-06 02:53:00,36.1,32.7,29.70,East,90,0.0,2.0,87,0.01,,,0.04,meteohub,2013-01-06 07:53:00,
2013-01-06 02:59:00,36.1,32.7,29.69,East,90,0.0,2.0,87,0.01,,,0.04,meteohub,2013-01-06 07:59:00,
2013-01-06 03:05:00,36.3,32.9,29.69,North,0,2.0,2.0,87,0.01,,,0.04,meteohub,2013-01-06 08:05:00,
2013-01-06 03:11:00,36.3,32.9,29.69,SE,135,2.0,2.0,87,0.01,,,0.04,meteohub,2013-01-06 08:11:00,
2013-01-06 03:17:00,36.3,32.9,29.69,East,90,1.0,2.0,87,0.02,,,0.05,meteohub,2013-01-06 08:17:00,
2013-01-06 03:22:00,36.3,32.9,29.69,SE,135,1.0,2.0,87,0.02,,,0.05,meteohub,2013-01-06 08:22:00,
2013-01-06 03:28:00,36.3,32.9,29.68,NE,45,1.0,2.0,87,0.02,,,0.05,meteohub,2013-01-06 08:28:00,
2013-01-06 03:34:00,36.3,32.9,29.68,NE,45,1.0,2.0,87,0.01,,,0.05,meteohub,2013-01-06 08:34:00,
2013-01-06 03:40:00,37.6,35.4,29.68,SSW,203,4.0,4.0,92,0.01,,,0.05,meteohub,2013-01-06 08:40:00,
2013-01-06 03:47:00,37.8,36.0,29.67,North,0,2.0,4.0,93,0.01,,,0.05,meteohub,2013-01-06 08:47:00,
2013-01-06 03:53:00,38.1,36.3,29.67,NE,45,4.0,4.0,93,0.01,,,0.05,meteohub,2013-01-06 08:53:00,
2013-01-06 04:29:00,39.6,37.9,29.65,West,270,6.0,-999.0,94,0.00,,,0.05,meteohub,2013-01-06 09:29:00,
2013-01-06 04:35:00,39.6,37.9,29.65,West,270,6.0,6.0,94,0.00,,,0.05,meteohub,2013-01-06 09:35:00,
2013-01-06 04:41:00,39.6,37.9,29.65,West,270,6.0,6.0,94,0.00,,,0.05,meteohub,2013-01-06 09:41:00,
2013-01-06 04:59:00,40.1,38.5,29.65,NW,315,4.0,-999.0,94,0.00,,,0.05,meteohub,2013-01-06 09:59:00,
2013-01-06 05:05:00,40.1,38.5,29.65,NW,315,4.0,-999.0,94,0.00,,,0.05,meteohub,2013-01-06 10:05:00,
2013-01-06 05:11:00,39.9,38.3,29.65,NW,315,4.0,4.0,94,0.00,,,0.05,meteohub,2013-01-06 10:11:00,
2013-01-06 05:17:00,39.9,38.3,29.64,North,0,2.0,4.0,94,0.00,,,0.05,meteohub,2013-01-06 10:17:00,
2013-01-06 05:22:00,39.7,37.9,29.65,NW,315,2.0,4.0,93,0.00,,,0.05,meteohub,2013-01-06 10:22:00,
2013-01-06 05:28:00,39.7,37.9,29.64,NW,315,2.0,4.0,93,0.00,,,0.05,meteohub,2013-01-06 10:28:00,
2013-01-06 05:34:00,39.6,37.8,29.64,North,0,1.0,3.0,93,0.00,,,0.05,meteohub,2013-01-06 10:34:00,
2013-01-06 05:41:00,39.6,37.8,29.64,North,0,1.0,3.0,93,0.00,,,0.05,meteohub,2013-01-06 10:41:00,
2013-01-06 05:59:00,39.2,37.4,29.64,East,90,1.0,-999.0,93,0.00,,,0.05,meteohub,2013-01-06 10:59:00,
2013-01-06 06:05:00,39.2,37.4,29.64,East,90,1.0,1.0,93,0.00,,,0.05,meteohub,2013-01-06 11:05:00,
2013-01-06 06:12:00,39.2,37.4,29.64,East,90,0.0,1.0,93,0.01,,,0.06,meteohub,2013-01-06 11:12:00,
2013-01-06 06:17:00,39.2,37.4,29.65,East,90,0.0,1.0,93,0.01,,,0.06,meteohub,2013-01-06 11:17:00,
2013-01-06 06:27:00,38.8,37.2,29.65,North,0,0.0,0.0,94,0.01,,,0.06,meteohub,2013-01-06 11:27:00,
2013-01-06 06:33:00,38.8,37.2,29.65,SE,135,0.0,0.0,94,0.01,,,0.06,meteohub,2013-01-06 11:33:00,
2013-01-06 06:39:00,38.8,37.2,29.65,SE,135,0.0,0.0,94,0.01,,,0.06,meteohub,2013-01-06 11:39:00,
2013-01-06 06:46:00,38.7,37.0,29.65,NW,315,2.0,0.0,94,0.01,,,0.06,meteohub,2013-01-06 11:46:00,
2013-01-06 06:52:00,38.8,37.2,29.65,NW,315,5.0,5.0,94,0.01,,,0.06,meteohub,2013-01-06 11:52:00,
2013-01-06 06:58:00,38.8,37.2,29.65,NW,315,5.0,5.0,94,0.01,,,0.06,meteohub,2013-01-06 11:58:00,
2013-01-06 07:04:00,38.8,37.2,29.65,NW,315,5.0,5.0,94,0.01,,,0.06,meteohub,2013-01-06 12:04:00,
2013-01-06 07:11:00,38.8,37.2,29.66,North,0,3.0,5.0,94,0.00,,,0.06,meteohub,2013-01-06 12:11:00,
2013-01-06 07:17:00,38.8,37.2,29.66,North,0,3.0,6.0,94,0.00,,,0.06,meteohub,2013-01-06 12:17:00,
2013-01-06 07:22:00,38.5,36.9,29.66,SE,135,4.0,6.0,94,0.00,,,0.06,meteohub,2013-01-06 12:22:00,
2013-01-06 07:28:00,38.3,36.5,29.66,NW,315,4.0,6.0,93,0.00,,,0.06,meteohub,2013-01-06 12:28:00,
2013-01-06 07:34:00,38.1,36.3,29.66,NW,315,4.0,6.0,93,0.00,,,0.06,meteohub,2013-01-06 12:34:00,
2013-01-06 07:40:00,37.8,35.6,29.66,North,0,2.0,8.0,92,0.00,,,0.06,meteohub,2013-01-06 12:40:00,
2013-01-06 07:46:00,37.6,35.4,29.67,North,0,2.0,4.0,92,0.00,,,0.06,meteohub,2013-01-06 12:46:00,
2013-01-06 07:52:00,37.4,35.2,29.67,North,0,2.0,4.0,92,0.00,,,0.06,meteohub,2013-01-06 12:52:00,
2013-01-06 07:59:00,37.4,35.2,29.66,North,0,2.0,4.0,92,0.00,,,0.06,meteohub,2013-01-06 12:59:00,
2013-01-06 08:05:00,37.4,35.2,29.66,North,0,2.0,2.0,92,0.00,,,0.06,meteohub,2013-01-06 13:05:00,
2013-01-06 08:11:00,37.4,35.2,29.66,North,0,2.0,2.0,92,0.00,,,0.06,meteohub,2013-01-06 13:11:00,
2013-01-06 08:17:00,37.6,35.8,29.66,North,0,8.0,8.0,93,0.00,,,0.06,meteohub,2013-01-06 13:17:00,
2013-01-06 08:19:00,37.6,35.8,29.66,NW,315,2.0,4.0,93,0.00,,,0.06,meteohub,2013-01-06 13:19:00,
2013-01-06 08:32:00,38.3,36.5,29.67,South,180,4.0,11.0,93,0.00,,,0.06,meteohub,2013-01-06 13:32:00,
2013-01-06 08:38:00,38.3,36.1,29.67,South,180,8.0,11.0,92,0.00,,,0.06,meteohub,2013-01-06 13:38:00,
2013-01-06 08:44:00,38.1,35.2,29.68,South,180,4.0,11.0,89,0.00,,,0.06,meteohub,2013-01-06 13:44:00,
2013-01-06 08:50:00,38.1,35.2,29.67,SW,225,3.0,13.0,89,0.00,,,0.06,meteohub,2013-01-06 13:50:00,
2013-01-06 08:56:00,37.9,34.3,29.68,NE,45,4.0,13.0,87,0.00,,,0.06,meteohub,2013-01-06 13:56:00,
2013-01-06 09:02:00,37.8,34.0,29.68,NNE,23,6.0,9.0,86,0.00,,,0.06,meteohub,2013-01-06 14:02:00,
2013-01-06 09:07:00,37.4,33.3,29.67,South,180,8.0,9.0,85,0.00,,,0.06,meteohub,2013-01-06 14:07:00,
2013-01-06 09:13:00,37.4,33.1,29.67,SW,225,7.0,17.0,84,0.00,,,0.06,meteohub,2013-01-06 14:13:00,
2013-01-06 09:20:00,37.2,30.9,29.68,SE,135,8.0,17.0,78,0.00,,,0.06,meteohub,2013-01-06 14:20:00,
2013-01-06 09:26:00,37.0,30.7,29.67,SW,225,4.0,15.0,78,0.00,,,0.06,meteohub,2013-01-06 14:26:00,
2013-01-06 09:32:00,36.9,30.6,29.67,SSW,203,11.0,15.0,78,0.00,,,0.06,meteohub,2013-01-06 14:32:00,
2013-01-06 09:37:00,36.9,30.4,29.66,SW,225,11.0,11.0,77,0.00,,,0.06,meteohub,2013-01-06 14:37:00,
2013-01-06 09:43:00,36.9,30.0,29.67,SW,225,8.0,11.0,76,0.00,,,0.06,meteohub,2013-01-06 14:43:00,
2013-01-06 09:49:00,37.0,30.2,29.67,South,180,10.0,11.0,76,0.00,,,0.06,meteohub,2013-01-06 14:49:00,
2013-01-06 09:56:00,37.4,31.8,29.67,South,180,5.0,11.0,80,0.00,,,0.06,meteohub,2013-01-06 14:56:00,
2013-01-06 10:01:00,37.8,32.2,29.67,South,180,4.0,11.0,80,0.00,,,0.06,meteohub,2013-01-06 15:01:00,
2013-01-06 10:07:00,38.1,32.5,29.67,NNW,338,6.0,8.0,80,0.00,,,0.06,meteohub,2013-01-06 15:07:00,
2013-01-06 10:13:00,37.6,31.6,29.67,West,270,4.0,10.0,79,0.00,,,0.06,meteohub,2013-01-06 15:13:00,
2013-01-06 10:19:00,37.6,31.6,29.67,South,180,2.0,10.0,79,0.00,,,0.06,meteohub,2013-01-06 15:19:00,
2013-01-06 10:25:00,37.8,32.2,29.67,East,90,2.0,8.0,80,0.00,,,0.06,meteohub,2013-01-06 15:25:00,
2013-01-06 10:32:00,37.9,32.0,29.67,North,0,3.0,8.0,79,0.00,,,0.06,meteohub,2013-01-06 15:32:00,
2013-01-06 10:38:00,38.1,31.8,29.68,South,180,4.0,8.0,78,0.00,,,0.06,meteohub,2013-01-06 15:38:00,
2013-01-06 10:44:00,39.6,32.4,29.68,North,0,2.0,8.0,75,0.00,,,0.06,meteohub,2013-01-06 15:44:00,
2013-01-06 10:50:00,42.4,34.0,29.67,South,180,2.0,7.0,72,0.00,,,0.06,meteohub,2013-01-06 15:50:00,
2013-01-06 10:55:00,44.4,33.8,29.68,South,180,11.0,11.0,66,0.00,,,0.06,meteohub,2013-01-06 15:55:00,
2013-01-06 11:02:00,44.8,32.2,29.67,SW,225,7.0,11.0,61,0.00,,,0.06,meteohub,2013-01-06 16:02:00,
2013-01-06 11:11:00,43.0,30.0,29.67,NE,45,5.0,11.0,60,0.00,,,0.06,meteohub,2013-01-06 16:11:00,
2013-01-06 11:17:00,43.9,30.9,29.67,West,270,6.0,9.0,60,0.00,,,0.06,meteohub,2013-01-06 16:17:00,
2013-01-06 11:23:00,44.6,31.6,29.67,NW,315,3.0,9.0,60,0.00,,,0.06,meteohub,2013-01-06 16:23:00,
2013-01-06 11:29:00,44.2,31.3,29.67,NE,45,2.0,9.0,60,0.00,,,0.06,meteohub,2013-01-06 16:29:00,
2013-01-06 11:35:00,45.1,31.3,29.66,North,0,7.0,7.0,58,0.00,,,0.06,meteohub,2013-01-06 16:35:00,
2013-01-06 11:41:00,43.7,30.4,29.66,East,90,7.0,10.0,59,0.00,,,0.06,meteohub,2013-01-06 16:41:00,
2013-01-06 11:47:00,42.4,29.5,29.66,South,180,7.0,10.0,60,0.00,,,0.06,meteohub,2013-01-06 16:47:00,
2013-01-06 11:52:00,42.3,30.2,29.66,South,180,4.0,10.0,62,0.00,,,0.06,meteohub,2013-01-06 16:52:00,
2013-01-06 11:58:00,40.8,29.7,29.66,South,180,4.0,8.0,64,0.00,,,0.06,meteohub,2013-01-06 16:58:00,
2013-01-06 12:04:00,40.3,29.8,29.66,NNW,338,4.0,7.0,66,0.00,,,0.06,meteohub,2013-01-06 17:04:00,
2013-01-06 12:11:00,41.9,30.9,29.65,South,180,8.0,11.0,65,0.00,,,0.06,meteohub,2013-01-06 17:11:00,
2013-01-06 12:17:00,41.9,29.8,29.65,North,0,3.0,11.0,62,0.00,,,0.06,meteohub,2013-01-06 17:17:00,
2013-01-06 12:22:00,43.5,30.6,29.64,South,180,9.0,14.0,60,0.00,,,0.06,meteohub,2013-01-06 17:22:00,
2013-01-06 12:28:00,42.6,29.7,29.64,SE,135,7.0,14.0,60,0.00,,,0.06,meteohub,2013-01-06 17:28:00,
2013-01-06 12:34:00,42.4,29.5,29.64,WNW,293,4.0,12.0,60,0.00,,,0.06,meteohub,2013-01-06 17:34:00,
2013-01-06 12:40:00,42.3,29.3,29.63,SW,225,16.0,16.0,60,0.00,,,0.06,meteohub,2013-01-06 17:40:00,
2013-01-06 12:43:00,40.8,28.8,29.63,South,180,8.0,15.0,62,0.00,,,0.06,meteohub,2013-01-06 17:43:00,
2013-01-06 12:47:00,40.5,29.3,29.63,SW,225,9.0,16.0,64,0.00,,,0.06,meteohub,2013-01-06 17:47:00,
2013-01-06 12:59:00,40.3,29.8,29.62,North,0,3.0,16.0,66,0.00,,,0.06,meteohub,2013-01-06 17:59:00,
2013-01-06 13:05:00,40.3,29.5,29.62,South,180,12.0,16.0,65,0.00,,,0.06,meteohub,2013-01-06 18:05:00,
2013-01-06 13:11:00,39.9,28.8,29.62,SW,225,6.0,12.0,64,0.00,,,0.06,meteohub,2013-01-06 18:11:00,
2013-01-06 13:17:00,40.8,30.0,29.61,SSW,203,10.0,15.0,65,0.00,,,0.06,meteohub,2013-01-06 18:17:00,
2013-01-06 13:22:00,40.8,29.7,29.61,South,180,9.0,15.0,64,0.00,,,0.06,meteohub,2013-01-06 18:22:00,
2013-01-06 13:28:00,42.1,30.0,29.61,SW,225,11.0,15.0,62,0.00,,,0.06,meteohub,2013-01-06 18:28:00,
2013-01-06 13:34:00,43.3,30.0,29.61,NE,45,2.0,15.0,59,0.00,,,0.06,meteohub,2013-01-06 18:34:00,
2013-01-06 13:40:00,46.4,30.7,29.61,SSW,203,12.0,15.0,54,0.00,,,0.06,meteohub,2013-01-06 18:40:00,
2013-01-06 13:46:00,44.6,27.5,29.61,NW,315,8.0,15.0,51,0.00,,,0.06,meteohub,2013-01-06 18:46:00,
2013-01-06 13:52:00,47.3,30.6,29.60,North,0,4.0,15.0,52,0.00,,,0.06,meteohub,2013-01-06 18:52:00,
2013-01-06 13:59:00,49.1,30.7,29.60,NW,315,6.0,15.0,49,0.00,,,0.06,meteohub,2013-01-06 18:59:00,
2013-01-06 14:05:00,46.8,28.6,29.61,NW,315,4.0,12.0,49,0.00,,,0.06,meteohub,2013-01-06 19:05:00,
2013-01-06 14:11:00,48.6,31.3,29.60,NE,45,8.0,12.0,51,0.00,,,0.06,meteohub,2013-01-06 19:11:00,
2013-01-06 14:17:00,48.2,30.4,29.60,North,0,5.0,12.0,50,0.00,,,0.06,meteohub,2013-01-06 19:17:00,
2013-01-06 14:23:00,48.2,30.9,29.60,North,0,4.0,10.0,51,0.00,,,0.06,meteohub,2013-01-06 19:23:00,
2013-01-06 14:30:00,46.8,30.0,29.60,SW,225,13.0,13.0,52,0.00,,,0.06,meteohub,2013-01-06 19:30:00,
2013-01-06 14:36:00,46.8,30.6,29.60,SE,135,3.0,13.0,53,0.00,,,0.06,meteohub,2013-01-06 19:36:00,
2013-01-06 14:48:00,46.6,29.5,29.60,North,0,4.0,13.0,51,0.00,,,0.06,meteohub,2013-01-06 19:48:00,
2013-01-06 14:53:00,44.8,27.7,29.60,South,180,4.0,11.0,51,0.00,,,0.06,meteohub,2013-01-06 19:53:00,
2013-01-06 15:01:00,46.2,30.0,29.60,South,180,12.0,14.0,53,0.00,,,0.06,meteohub,2013-01-06 20:01:00,
2013-01-06 15:08:00,45.5,28.9,29.60,South,180,11.0,14.0,52,0.00,,,0.06,meteohub,2013-01-06 20:08:00,
2013-01-06 15:11:00,45.3,29.1,29.60,SE,135,3.0,12.0,53,0.00,,,0.06,meteohub,2013-01-06 20:11:00,
2013-01-06 15:13:00,45.7,29.5,29.60,South,180,2.0,12.0,53,0.00,,,0.06,meteohub,2013-01-06 20:13:00,
2013-01-06 15:19:00,47.3,30.6,29.61,West,270,4.0,12.0,52,0.00,,,0.06,meteohub,2013-01-06 20:19:00,
2013-01-06 15:25:00,44.8,27.7,29.61,SW,225,10.0,19.0,51,0.00,,,0.06,meteohub,2013-01-06 20:25:00,
2013-01-06 15:31:00,44.2,29.1,29.61,SW,225,15.0,19.0,55,0.00,,,0.06,meteohub,2013-01-06 20:31:00,
2013-01-06 15:38:00,44.2,30.4,29.61,South,180,8.0,19.0,58,0.00,,,0.06,meteohub,2013-01-06 20:38:00,
2013-01-06 15:44:00,43.9,29.1,29.61,SW,225,8.0,15.0,56,0.00,,,0.06,meteohub,2013-01-06 20:44:00,
2013-01-06 15:50:00,45.3,29.7,29.61,SW,225,12.0,13.0,54,0.00,,,0.06,meteohub,2013-01-06 20:50:00,
2013-01-06 15:57:00,44.6,28.9,29.62,East,90,4.0,13.0,54,0.00,,,0.06,meteohub,2013-01-06 20:57:00,
2013-01-06 16:02:00,43.3,28.2,29.61,South,180,9.0,12.0,55,0.00,,,0.06,meteohub,2013-01-06 21:02:00,
2013-01-06 16:04:00,41.9,28.2,29.61,East,90,5.0,12.0,58,0.00,,,0.06,meteohub,2013-01-06 21:04:00,
2013-01-06 16:10:00,41.0,28.2,29.61,SSW,203,8.0,9.0,60,0.00,,,0.06,meteohub,2013-01-06 21:10:00,
2013-01-06 16:16:00,40.1,28.0,29.62,East,90,3.0,10.0,62,0.00,,,0.06,meteohub,2013-01-06 21:16:00,
2013-01-06 16:23:00,39.0,27.9,29.62,North,0,2.0,10.0,64,0.00,,,0.06,meteohub,2013-01-06 21:23:00,
2013-01-06 16:29:00,38.8,28.0,29.61,SW,225,3.0,10.0,65,0.00,,,0.06,meteohub,2013-01-06 21:29:00,
2013-01-06 16:35:00,38.8,28.4,29.62,South,180,3.0,10.0,66,0.00,,,0.06,meteohub,2013-01-06 21:35:00,
2013-01-06 16:42:00,38.1,28.2,29.62,SW,225,4.0,10.0,67,0.00,,,0.06,meteohub,2013-01-06 21:42:00,
2013-01-06 16:48:00,37.2,26.2,29.61,South,180,3.0,10.0,64,0.00,,,0.06,meteohub,2013-01-06 21:48:00,
2013-01-06 16:54:00,36.9,26.6,29.61,SW,225,4.0,10.0,66,0.00,,,0.06,meteohub,2013-01-06 21:54:00,
2013-01-06 17:00:00,36.5,26.6,29.62,West,270,4.0,8.0,67,0.00,,,0.06,meteohub,2013-01-06 22:00:00,
2013-01-06 17:07:00,36.3,26.4,29.61,SSW,203,4.0,7.0,67,0.00,,,0.06,meteohub,2013-01-06 22:07:00,
2013-01-06 17:13:00,36.1,26.2,29.62,SE,135,3.0,7.0,67,0.00,,,0.06,meteohub,2013-01-06 22:13:00,
2013-01-06 17:19:00,35.8,25.9,29.62,NE,45,1.0,5.0,67,0.00,,,0.06,meteohub,2013-01-06 22:19:00,
2013-01-06 17:25:00,35.2,26.1,29.61,NE,45,3.0,5.0,69,0.00,,,0.06,meteohub,2013-01-06 22:25:00,
2013-01-06 17:31:00,34.9,25.7,29.62,NNE,23,4.0,5.0,69,0.00,,,0.06,meteohub,2013-01-06 22:31:00,
2013-01-06 17:38:00,34.3,25.2,29.62,NNE,23,2.0,5.0,69,0.00,,,0.06,meteohub,2013-01-06 22:38:00,
2013-01-06 17:44:00,34.2,25.3,29.62,NNW,338,2.0,5.0,70,0.00,,,0.06,meteohub,2013-01-06 22:44:00,
2013-01-06 17:50:00,33.8,25.3,29.62,NW,315,2.0,4.0,71,0.00,,,0.06,meteohub,2013-01-06 22:50:00,
2013-01-06 17:56:00,33.4,25.7,29.63,North,0,2.0,4.0,73,0.00,,,0.06,meteohub,2013-01-06 22:56:00,
2013-01-06 18:02:00,33.1,25.3,29.62,North,0,3.0,4.0,73,0.00,,,0.06,meteohub,2013-01-06 23:02:00,
2013-01-06 18:07:00,32.7,25.3,29.63,NW,315,0.0,4.0,74,0.00,,,0.06,meteohub,2013-01-06 23:07:00,
2013-01-06 18:13:00,32.4,25.3,29.63,NW,315,3.0,3.0,75,0.00,,,0.06,meteohub,2013-01-06 23:13:00,
2013-01-06 18:19:00,32.2,25.7,29.63,NW,315,3.0,3.0,77,0.00,,,0.06,meteohub,2013-01-06 23:19:00,
2013-01-06 18:25:00,32.0,25.7,29.63,NW,315,3.0,4.0,77,0.00,,,0.06,meteohub,2013-01-06 23:25:00,
2013-01-06 18:32:00,31.6,25.5,29.63,SE,135,1.0,4.0,78,0.00,,,0.06,meteohub,2013-01-06 23:32:00,
2013-01-06 18:38:00,31.8,25.7,29.64,SW,225,1.0,3.0,78,0.00,,,0.06,meteohub,2013-01-06 23:38:00,
2013-01-06 18:44:00,32.0,25.9,29.65,NE,45,1.0,5.0,78,0.00,,,0.06,meteohub,2013-01-06 23:44:00,
2013-01-06 18:50:00,31.8,25.7,29.65,SE,135,4.0,5.0,78,0.00,,,0.06,meteohub,2013-01-06 23:50:00,
2013-01-06 18:56:00,32.2,26.1,29.66,South,180,5.0,9.0,78,0.00,,,0.06,meteohub,2013-01-06 23:56:00,
2013-01-06 19:02:00,32.4,25.9,29.66,South,180,9.0,9.0,77,0.00,,,0.06,meteohub,2013-01-07 00:02:00,
2013-01-06 19:09:00,32.7,25.7,29.66,North,0,6.0,9.0,75,0.00,,,0.06,meteohub,2013-01-07 00:09:00,
2013-01-06 19:15:00,32.9,25.2,29.66,NE,45,1.0,9.0,73,0.00,,,0.06,meteohub,2013-01-07 00:15:00,
2013-01-06 19:21:00,32.7,24.6,29.66,South,180,8.0,8.0,72,0.00,,,0.06,meteohub,2013-01-07 00:21:00,
2013-01-06 19:27:00,33.1,24.6,29.66,North,0,1.0,8.0,71,0.00,,,0.06,meteohub,2013-01-07 00:27:00,
2013-01-06 19:33:00,33.1,24.6,29.66,North,0,0.0,12.0,71,0.00,,,0.06,meteohub,2013-01-07 00:33:00,
2013-01-06 19:40:00,33.1,24.6,29.66,South,180,3.0,12.0,71,0.00,,,0.06,meteohub,2013-01-07 00:40:00,
2013-01-06 19:46:00,33.6,24.8,29.66,NE,45,1.0,4.0,70,0.00,,,0.06,meteohub,2013-01-07 00:46:00,
2013-01-06 19:52:00,33.8,24.8,29.66,NE,45,2.0,4.0,69,0.00,,,0.06,meteohub,2013-01-07 00:52:00,
2013-01-06 19:58:00,33.8,24.1,29.67,NE,45,1.0,4.0,67,0.00,,,0.06,meteohub,2013-01-07 00:58:00,
2013-01-06 20:04:00,33.6,23.9,29.66,NE,45,4.0,5.0,67,0.00,,,0.06,meteohub,2013-01-07 01:04:00,
2013-01-06 20:10:00,33.3,23.5,29.66,South,180,2.0,5.0,67,0.00,,,0.06,meteohub,2013-01-07 01:10:00,
2013-01-06 20:17:00,33.1,23.4,29.67,North,0,2.0,5.0,67,0.00,,,0.06,meteohub,2013-01-07 01:17:00,
2013-01-06 20:23:00,32.9,23.5,29.66,SW,225,8.0,8.0,68,0.00,,,0.06,meteohub,2013-01-07 01:23:00,
2013-01-06 20:29:00,33.4,23.0,29.66,East,90,2.0,10.0,65,0.00,,,0.06,meteohub,2013-01-07 01:29:00,
2013-01-06 20:35:00,33.8,23.0,29.66,North,0,2.0,11.0,64,0.00,,,0.06,meteohub,2013-01-07 01:35:00,
2013-01-06 20:41:00,33.8,22.5,29.66,East,90,1.0,8.0,63,0.00,,,0.06,meteohub,2013-01-07 01:41:00,
2013-01-06 20:47:00,34.0,22.3,29.66,NW,315,4.0,11.0,62,0.00,,,0.06,meteohub,2013-01-07 01:47:00,
2013-01-06 20:52:00,34.2,22.1,29.67,North,0,9.0,11.0,61,0.00,,,0.06,meteohub,2013-01-07 01:52:00,
2013-01-06 20:58:00,34.3,21.9,29.67,NE,45,4.0,11.0,60,0.00,,,0.06,meteohub,2013-01-07 01:58:00,
2013-01-06 21:05:00,34.3,21.9,29.67,East,90,5.0,9.0,60,0.00,,,0.06,meteohub,2013-01-07 02:05:00,
2013-01-06 21:08:00,34.5,22.1,29.67,East,90,2.0,11.0,60,0.00,,,0.06,meteohub,2013-01-07 02:08:00,
2013-01-06 21:17:00,34.7,22.3,29.68,NW,315,2.0,11.0,60,0.00,,,0.06,meteohub,2013-01-07 02:17:00,
2013-01-06 21:23:00,34.7,22.3,29.68,NE,45,3.0,11.0,60,0.00,,,0.06,meteohub,2013-01-07 02:23:00,
2013-01-06 21:29:00,34.7,22.6,29.68,North,0,1.0,11.0,61,0.00,,,0.06,meteohub,2013-01-07 02:29:00,
2013-01-06 21:35:00,34.7,22.6,29.69,ESE,113,4.0,7.0,61,0.00,,,0.06,meteohub,2013-01-07 02:35:00,
2013-01-06 21:42:00,34.7,22.6,29.69,South,180,11.0,11.0,61,0.00,,,0.06,meteohub,2013-01-07 02:42:00,
2013-01-06 21:48:00,34.7,22.6,29.69,NE,45,1.0,11.0,61,0.00,,,0.06,meteohub,2013-01-07 02:48:00,
2013-01-06 21:54:00,34.7,22.6,29.69,ENE,68,3.0,11.0,61,0.00,,,0.06,meteohub,2013-01-07 02:54:00,
2013-01-06 22:00:00,34.7,22.6,29.70,North,0,2.0,8.0,61,0.00,,,0.06,meteohub,2013-01-07 03:00:00,
2013-01-06 22:07:00,34.5,22.8,29.69,North,0,3.0,8.0,62,0.00,,,0.06,meteohub,2013-01-07 03:07:00,
2013-01-06 22:13:00,34.5,22.5,29.70,SE,135,2.0,5.0,61,0.00,,,0.06,meteohub,2013-01-07 03:13:00,
2013-01-06 22:19:00,34.5,22.8,29.70,East,90,3.0,11.0,62,0.00,,,0.06,meteohub,2013-01-07 03:19:00,
2013-01-06 22:25:00,34.7,22.6,29.70,NW,315,4.0,11.0,61,0.00,,,0.06,meteohub,2013-01-07 03:25:00,
2013-01-06 22:31:00,34.7,22.6,29.70,NW,315,6.0,9.0,61,0.00,,,0.06,meteohub,2013-01-07 03:31:00,
2013-01-06 22:38:00,34.5,22.5,29.70,NW,315,5.0,10.0,61,0.00,,,0.06,meteohub,2013-01-07 03:38:00,
2013-01-06 22:44:00,34.3,22.3,29.71,NE,45,4.0,10.0,61,0.00,,,0.06,meteohub,2013-01-07 03:44:00,
2013-01-06 22:50:00,34.0,21.9,29.72,NW,315,8.0,8.0,61,0.00,,,0.06,meteohub,2013-01-07 03:50:00,
2013-01-06 22:56:00,33.4,21.7,29.71,South,180,4.0,9.0,62,0.00,,,0.06,meteohub,2013-01-07 03:56:00,
2013-01-06 23:02:00,33.3,21.7,29.70,SE,135,4.0,9.0,62,0.00,,,0.06,meteohub,2013-01-07 04:02:00,
2013-01-06 23:07:00,32.9,21.7,29.71,NW,315,1.0,9.0,63,0.00,,,0.06,meteohub,2013-01-07 04:07:00,
2013-01-06 23:14:00,32.5,21.7,29.71,NW,315,2.0,6.0,64,0.00,,,0.06,meteohub,2013-01-07 04:14:00,
2013-01-06 23:20:00,31.8,21.7,29.71,NE,45,2.0,5.0,66,0.00,,,0.06,meteohub,2013-01-07 04:20:00,
2013-01-06 23:26:00,31.6,21.9,29.72,NW,315,0.0,3.0,67,0.00,,,0.06,meteohub,2013-01-07 04:26:00,
2013-01-06 23:32:00,30.9,21.6,29.72,North,0,2.0,3.0,68,0.00,,,0.06,meteohub,2013-01-07 04:32:00,
2013-01-06 23:37:00,30.9,21.9,29.72,NW,315,2.0,3.0,69,0.00,,,0.06,meteohub,2013-01-07 04:37:00,
2013-01-06 23:43:00,30.9,21.9,29.72,NE,45,0.0,6.0,69,0.00,,,0.06,meteohub,2013-01-07 04:43:00,
2013-01-06 23:49:00,30.2,21.2,29.71,East,90,0.0,6.0,69,0.00,,,0.06,meteohub,2013-01-07 04:49:00,
2013-01-06 23:56:00,29.8,21.6,29.71,East,90,1.0,2.0,71,0.00,,,0.06,meteohub,2013-01-07 04:56:00,